This demonstration page uses our WeatherBlox Daily Observations layout. Learn more.

Left ArrowRight Arrow

53.62937, 11.41316

Hourly Observations for May 31, 2021

Temp ( °F °C ) Dew Point ( °F °C ) Humidity (%) Winds ( mph kmh ) Pressure ( in mb ) Visibility ( mi km ) Precip ( " mm )
5:50 am 05:50 Mostly Sunny 43 6 43 6 100 100 N N/A 30.30 1026 7 11 N/A
6:20 am 06:20 Mostly Sunny 45 7 45 7 100 100 N N/A 30.30 1026 7 11 N/A
6:50 am 06:50 Mostly Sunny 48 9 48 9 100 100 N N/A 30.30 1026 7 11 N/A
7:20 am 07:20 Mostly Sunny 52 11 50 10 94 94 VRB 1 2 30.30 1026 7 11 N/A
7:50 am 07:50 Mostly Sunny 54 12 45 7 72 72 VRB 2 4 30.30 1026 7 11 N/A
8:20 am 08:20 Mostly Sunny 54 12 43 6 67 67 SE 5 7 30.30 1026 7 11 N/A
8:50 am 08:50 Mostly Sunny 57 14 41 5 55 55 ESE 3 6 30.30 1026 7 11 N/A
9:20 am 09:20 Mostly Sunny 59 15 41 5 51 51 VRB 2 4 30.30 1026 7 11 N/A
9:50 am 09:50 Mostly Sunny 59 15 39 4 48 48 E 3 6 30.30 1026 7 11 N/A
10:20 am 10:20 Mostly Sunny 63 17 43 6 49 49 E 3 6 30.27 1025 7 11 N/A
10:50 am 10:50 Mostly Sunny 64 18 43 6 46 46 ENE 5 7 30.27 1025 7 11 N/A
11:20 am 11:20 Mostly Sunny 64 18 45 7 49 49 ENE 5 7 30.27 1025 7 11 N/A
11:50 am 11:50 Mostly Sunny 66 19 46 8 49 49 ENE 8 13 30.27 1025 7 11 N/A
12:20 pm 12:20 Mostly Sunny 66 19 46 8 49 49 NE 7 11 30.27 1025 7 11 N/A
12:50 pm 12:50 Mostly Sunny 68 20 48 9 49 49 ENE 8 13 30.27 1025 7 11 N/A
1:20 pm 13:20 Mostly Sunny 68 20 48 9 49 49 NNE 9 15 30.24 1024 7 11 N/A
1:50 pm 13:50 Mostly Sunny 68 20 50 10 53 53 NNE 7 11 30.24 1024 7 11 N/A
2:20 pm 14:20 Mostly Sunny 70 21 50 10 50 50 NE 6 9 30.24 1024 7 11 N/A
2:50 pm 14:50 Mostly Sunny 70 21 46 8 43 43 ENE 8 13 30.24 1024 7 11 N/A
3:20 pm 15:20 Mostly Sunny 70 21 46 8 43 43 ENE 9 15 30.24 1024 7 11 N/A
3:50 pm 15:50 Mostly Sunny 70 21 46 8 43 43 ENE 7 11 30.24 1024 7 11 N/A
4:20 pm 16:20 Mostly Sunny 70 21 45 7 40 40 ENE 8 13 30.21 1023 7 11 N/A
4:50 pm 16:50 Mostly Sunny 70 21 46 8 43 43 ENE 8 13 30.21 1023 7 11 N/A
5:20 pm 17:20 Mostly Sunny 70 21 48 9 46 46 NNE 7 11 30.21 1023 7 11 N/A
5:50 pm 17:50 Mostly Sunny 70 21 46 8 43 43 ENE 9 15 30.21 1023 7 11 N/A
6:20 pm 18:20 Mostly Sunny 70 21 46 8 43 43 ENE 9 15 30.18 1022 7 11 N/A
6:50 pm 18:50 Mostly Sunny 70 21 45 7 40 40 ENE 8 13 30.18 1022 7 11 N/A
7:20 pm 19:20 Mostly Sunny 68 20 45 7 43 43 ENE 8 13 30.18 1022 7 11 N/A
7:50 pm 19:50 Mostly Sunny 68 20 46 8 46 46 ENE 8 13 30.18 1022 7 11 N/A
8:20 pm 20:20 Mostly Sunny 66 19 46 8 49 49 ENE 7 11 30.18 1022 7 11 N/A
8:50 pm 20:50 Mostly Sunny 64 18 48 9 56 56 ENE 6 9 30.18 1022 7 11 N/A
9:20 pm 21:20 Mostly Sunny 64 18 46 8 52 52 ENE 3 6 30.18 1022 7 11 N/A
9:50 pm 21:50 Mostly Clear 61 16 48 9 63 63 VRB 1 2 30.18 1022 7 11 N/A

Powered by AerisWeather